Location: Kumla
(59.1265°N, 15.1401°E)
Time: 15:51:12
(UTC+01:00)

Transit 2A - Pass Details

Date: 08 December 2023
Orbit: 600 x 953 km, 66.7° (Epoch: 21 February)

Event Time Altitude Azimuth Distance (km) Brightness Sun altitude
Rises 22:52:53 0° 310° (NW) 2,882 - -52.2°
Reaches altitude 10° 22:55:13 10° 304° (NW) 1,959 - -52.3°
Maximum altitude 22:59:21 43° 233° (SW) 851 - -52.5°
Drops below altitude 10° 23:03:29 10° 162° (SSE) 1,967 - -52.6°
Sets 23:05:51 0° 156° (SSE) 2,895 - -52.7°
